Date String (YYYY-MM-DD hh:mm:ss) UTC,Instrument flags,absolute air pressure of the measurement (hPa),sample flow rate (lpm),inlet stack bypass flow (lpm),air temperature of the measurement (°C),ambient temperature measured by the external sensor (°C),aerosol sample conditioner tube jacket temperature (°C),OPC LED temperature (°C),internal box temperature (°C),relative humidity of the measurement (%),span deviation,mass concentration of particles derived from Lorenz-Mie calculation of OPC scattering (μg/m³),mass concentration of particles derived from Lorenz-Mie calculation of OPC scattering (μg/m³),mass concentration of particles derived from Lorenz-Mie calculation of OPC scattering (μg/m³)
DateTimeUTC,F1_M11,P_M11,Q1_M11,Q2_M11,T1_M11,T2_M11,T3_M11,T4_M11,T5_M11,U1_M11,ZSPAN_M11,X0_M11,X2_M11,X1_M11
2023-09-02 00:00:00,SystemResetWarning,0829.4,4.99,000.00,027.7,024.7,000.0,035.8,029.0,20.4,0000.0,0010.72,0003.92,0002.83
2023-09-02 00:01:00,SystemResetWarning,0829.4,5.02,000.00,027.6,024.3,000.0,035.8,028.9,20.8,0000.0,0010.55,0003.89,0002.81
2023-09-02 00:02:00,SystemResetWarning,0829.4,5.00,000.00,027.6,024.6,000.0,035.8,028.9,21.0,0000.0,0010.57,0003.86,0002.81
2023-09-02 00:03:00,SystemResetWarning,0829.4,5.00,000.00,027.5,025.0,000.0,035.8,029.0,21.1,0000.0,0011.24,0003.84,0002.78
2023-09-02 00:04:00,SystemResetWarning,0829.4,5.00,000.00,027.6,025.5,000.0,035.8,029.2,21.1,0000.0,0011.06,0003.81,0002.77
2023-09-02 00:05:00,SystemResetWarning,0829.5,5.00,000.00,027.6,026.0,000.0,035.8,029.4,21.2,0000.0,0011.59,0003.79,0002.76
2023-09-02 00:06:00,SystemResetWarning,0829.5,5.00,000.00,027.7,026.4,000.0,035.9,029.5,21.1,0000.0,0011.77,0003.79,0002.74
2023-09-02 00:07:00,SystemResetWarning,0829.5,4.99,000.00,027.8,026.2,000.0,035.9,029.4,21.3,0000.0,0011.02,0003.77,0002.74
2023-09-02 00:08:00,SystemResetWarning,0829.5,5.00,000.00,027.7,024.8,000.0,035.8,028.9,21.4,0000.0,0010.62,0003.78,0002.73
2023-09-02 00:09:00,SystemResetWarning,0829.5,5.01,000.00,027.6,024.4,000.0,035.8,028.9,22.0,0000.0,0010.83,0003.79,0002.74
2023-09-02 00:10:00,SystemResetWarning,0829.5,5.00,000.00,027.5,024.7,000.0,035.8,028.9,22.5,0000.0,0011.15,0003.77,0002.73
2023-09-02 00:11:00,SystemResetWarning,0829.5,4.99,000.00,027.5,025.0,000.0,035.8,029.0,22.5,0000.0,0011.10,0003.76,0002.75
2023-09-02 00:12:00,SystemResetWarning,0829.6,5.00,000.00,027.6,025.5,000.0,035.8,029.2,22.0,0000.0,0011.38,0003.72,0002.74
2023-09-02 00:13:00,SystemResetWarning,0829.6,5.00,000.00,027.6,025.9,000.0,035.8,029.3,22.4,0000.0,0011.28,0003.70,0002.72
2023-09-02 00:14:00,SystemResetWarning,0829.6,5.00,000.00,027.7,026.3,000.0,035.9,029.5,22.2,0000.0,0010.68,0003.68,0002.71
2023-09-02 00:15:00,SystemResetWarning,0829.6,4.99,000.00,027.8,026.2,000.0,035.9,029.4,22.3,0000.0,0009.71,0003.65,0002.70
2023-09-02 00:16:00,SystemResetWarning,0829.6,5.00,000.00,027.7,024.8,000.0,035.8,028.9,21.8,0000.0,0009.20,0003.63,0002.68
2023-09-02 00:17:00,SystemResetWarning,0829.5,5.01,000.00,027.6,024.4,000.0,035.8,028.8,21.6,0000.0,0008.78,0003.58,0002.68
2023-09-02 00:18:00,SystemResetWarning,0829.5,5.01,000.00,027.5,024.6,000.0,035.8,028.9,21.6,0000.0,0008.79,0003.57,0002.66
2023-09-02 00:19:00,SystemResetWarning,0829.6,5.00,000.00,027.5,025.0,000.0,035.8,029.0,21.6,0000.0,0009.50,0003.54,0002.68
2023-09-02 00:20:00,SystemResetWarning,0829.6,5.00,000.00,027.6,025.5,000.0,035.8,029.2,22.1,0000.0,0009.53,0003.53,0002.70
2023-09-02 00:21:00,SystemResetWarning,0829.6,5.00,000.00,027.6,025.9,000.0,035.8,029.3,21.8,0000.0,0009.58,0003.55,0002.72
2023-09-02 00:22:00,SystemResetWarning,0829.7,5.00,000.00,027.7,026.3,000.0,035.9,029.4,21.4,0000.0,0010.14,0003.54,0002.72
2023-09-02 00:23:00,SystemResetWarning,0829.7,4.99,000.00,027.7,026.1,000.0,035.9,029.4,21.8,0000.0,0009.92,0003.55,0002.74
2023-09-02 00:24:00,SystemResetWarning,0829.6,4.99,000.00,027.6,024.8,000.0,035.8,028.9,22.4,0000.0,0009.94,0003.54,0002.74
2023-09-02 00:25:00,SystemResetWarning,0829.6,5.02,000.00,027.5,024.3,000.0,035.8,028.8,22.2,0000.0,0010.35,0003.56,0002.75
2023-09-02 00:26:00,SystemResetWarning,0829.7,4.99,000.00,027.5,024.6,000.0,035.7,028.8,22.2,0000.0,0010.50,0003.55,0002.77
2023-09-02 00:27:00,SystemResetWarning,0829.7,5.00,000.00,027.5,025.0,000.0,035.8,029.0,22.5,0000.0,0011.31,0003.57,0002.80
2023-09-02 00:28:00,SystemResetWarning,0829.6,5.00,000.00,027.5,025.5,000.0,035.8,029.2,22.8,0000.0,0011.65,0003.56,0002.80
2023-09-02 00:29:00,SystemResetWarning,0829.7,5.00,000.00,027.6,025.9,000.0,035.8,029.3,22.9,0000.0,0012.96,0003.57,0002.81
2023-09-02 00:30:00,SystemResetWarning,0829.7,5.00,000.00,027.7,026.3,000.0,035.9,029.5,22.6,0000.0,0012.42,0003.61,0002.81
2023-09-02 00:31:00,SystemResetWarning,0829.6,4.98,000.00,027.7,026.1,000.0,035.8,029.4,22.5,0000.0,0011.80,0003.64,0002.81
2023-09-02 00:32:00,SystemResetWarning,0829.6,5.00,000.00,027.6,024.8,000.0,035.8,028.9,22.8,0000.0,0011.97,0003.69,0002.79
2023-09-02 00:33:00,SystemResetWarning,0829.6,5.01,000.00,027.5,024.3,000.0,035.7,028.8,23.2,0000.0,0011.38,0003.72,0002.81
2023-09-02 00:34:00,SystemResetWarning,0829.6,5.00,000.00,027.5,024.6,000.0,035.7,028.9,23.7,0000.0,0011.59,0003.76,0002.82
2023-09-02 00:35:00,SystemResetWarning,0829.6,5.00,000.00,027.5,025.0,000.0,035.8,029.0,23.4,0000.0,0011.53,0003.79,0002.82
2023-09-02 00:36:00,SystemResetWarning,0829.6,5.00,000.00,027.5,025.5,000.0,035.8,029.2,22.1,0000.0,0011.13,0003.80,0002.82
2023-09-02 00:37:00,SystemResetWarning,0829.7,5.00,000.00,027.6,025.9,000.0,035.8,029.3,20.9,0000.0,0011.24,0003.81,0002.80
2023-09-02 00:38:00,SystemResetWarning,0829.6,5.00,000.00,027.7,026.3,000.0,035.8,029.4,21.8,0000.0,0010.56,0003.79,0002.78
2023-09-02 00:39:00,SystemResetWarning,0829.6,4.99,000.00,027.7,026.1,000.0,035.8,029.4,22.0,0000.0,0011.41,0003.87,0002.80
2023-09-02 00:40:00,SystemResetWarning,0829.6,5.00,000.00,027.6,024.7,000.0,035.8,028.9,22.0,0000.0,0010.11,0003.87,0002.81
2023-09-02 00:41:00,SystemResetWarning,0829.5,5.01,000.00,027.5,024.2,000.0,035.7,028.8,22.2,0000.0,0010.03,0003.84,0002.81
2023-09-02 00:42:00,SystemResetWarning,0829.5,5.01,000.00,027.5,024.5,000.0,035.7,028.8,22.7,0000.0,0010.82,0003.86,0002.81
2023-09-02 00:43:00,SystemResetWarning,0829.6,5.00,000.00,027.5,024.9,000.0,035.7,028.9,22.7,0000.0,0011.12,0003.82,0002.82
2023-09-02 00:44:00,SystemResetWarning,0829.6,5.00,000.00,027.5,025.4,000.0,035.8,029.1,22.8,0000.0,0011.63,0003.82,0002.82
2023-09-02 00:45:00,SystemResetWarning,0829.6,5.01,000.00,027.6,025.8,000.0,035.8,029.3,22.5,0000.0,0011.67,0003.78,0002.82
2023-09-02 00:46:00,SystemResetWarning,0829.6,5.00,000.00,027.7,026.2,000.0,035.8,029.4,22.2,0000.0,0011.54,0003.76,0002.83
2023-09-02 00:47:00,SystemResetWarning,0829.6,5.00,000.00,027.7,026.5,000.0,035.9,029.5,21.8,0000.0,0011.65,0003.79,0002.85
2023-09-02 00:48:00,SystemResetWarning,0829.5,4.98,000.00,027.7,025.5,000.0,035.8,029.2,21.6,0000.0,0011.60,0003.76,0002.85
2023-09-02 00:49:00,SystemResetWarning,0829.5,5.01,000.00,027.6,024.3,000.0,035.8,028.8,21.9,0000.0,0011.99,0003.73,0002.86
2023-09-02 00:50:00,SystemResetWarning,0829.5,5.02,000.00,027.5,024.3,000.0,035.7,028.8,22.0,0000.0,0011.99,0003.70,0002.85
2023-09-02 00:51:00,SystemResetWarning,0829.4,4.99,000.00,027.5,024.7,000.0,035.7,028.9,22.0,0000.0,0012.06,0003.69,0002.85
2023-09-02 00:52:00,SystemResetWarning,0829.4,5.00,000.00,027.5,025.1,000.0,035.8,029.1,22.1,0000.0,0012.10,0003.70,0002.85
2023-09-02 00:53:00,SystemResetWarning,0829.5,5.01,000.00,027.6,025.6,000.0,035.8,029.2,21.9,0000.0,0011.78,0003.68,0002.85
2023-09-02 00:54:00,SystemResetWarning,0829.6,5.00,000.00,027.6,026.0,000.0,035.8,029.4,21.6,0000.0,0011.46,0003.64,0002.84
2023-09-02 00:55:00,SystemResetWarning,0829.6,4.98,000.00,027.7,026.3,000.0,035.8,029.5,21.6,0000.0,0010.81,0003.64,0002.84
2023-09-02 00:56:00,SystemResetWarning,0829.6,4.99,000.00,027.7,026.2,000.0,035.8,029.4,21.7,0000.0,0010.88,0003.67,0002.82
2023-09-02 00:57:00,SystemResetWarning,0829.5,5.00,000.00,027.7,024.8,000.0,035.8,028.9,21.7,0000.0,0011.50,0003.68,0002.82
2023-09-02 00:58:00,SystemResetWarning,0829.4,5.00,000.00,027.5,024.1,000.0,035.7,028.7,21.7,0000.0,0011.46,0003.66,0002.83
2023-09-02 00:59:00,SystemResetWarning,0829.5,5.01,000.00,027.5,024.4,000.0,035.7,028.8,21.9,0000.0,0011.27,0003.64,0002.83
